www.pogodaiklimat.ru

Архив погоды в Киеве (город Киев, Украина)

Время
(UTC), дата
18 11.07
21 11.07
00 12.07
03 12.07
06 12.07
09 12.07
12 12.07
15 12.07
18 12.07
21 12.07
00 13.07
03 13.07
06 13.07
09 13.07
12 13.07
15 13.07
18 13.07
21 13.07
00 14.07
03 14.07
06 14.07
09 14.07
12 14.07
15 14.07
18 14.07
21 14.07
00 15.07
03 15.07
06 15.07
09 15.07
12 15.07
15 15.07
18 15.07
21 15.07
00 16.07
03 16.07
06 16.07
09 16.07
12 16.07
15 16.07
18 16.07
21 16.07
00 17.07
03 17.07
06 17.07
09 17.07
12 17.07
15 17.07
18 17.07
21 17.07
00 18.07
03 18.07
06 18.07
09 18.07
12 18.07
15 18.07
Ветер
(напр.,м/с)
Видим. Явления Облачность Т
(С)
Тd
(С)
f
(%)
Тe
(С)
Тes
(С)
Комфортность P
(гПа)
Po
(гПа)
Тmin
(С)
Tmax
(С)
R
(мм)
R24
(мм)
S
(см)
штиль 0 20 км ясно +29.0 +17.7 51 +33 +33 очень душно 1017.3 998.4 +34.2
штиль 0 20 км ясно +26.6 +19.4 65 +32 +32 очень душно 1016.8 997.8
штиль 0 20 км ясно +23.8 +17.4 67 +28 +28 душно 1016.3 997.1
штиль 0 20 км ясно +22.9 +19.1 79 +29 +30 очень душно 1016.4 997.1
Ю 2 20 км ясно +29.0 +19.9 58 +35 +43 очень душно 1016.3 997.4 +22.8
Ю 1 20 км 3/3 600 м
[Cu med, cong]
+33.0 +18.6 43 +38 +51 опасность солнечного удара 1016.5 997.9
ЮВ 1 20 км 8/3 600 м
[Cb calv Ac trans Ci fib]
+32.7 +16.7 38 +36 +43 очень душно 1016.2 997.5
штиль 0 20 км {гроза} 8/0
[Cs]
+33.4 +19.9 45 +39 +44 очень душно 1013.4 994.9
Ю 1 20 км {гроза} 9/0
[Cs]
+28.3 +18.9 57 +34 +34 очень душно 1015.1 996.2 +34.1
штиль 0 20 км 6/0
[Ci fib]
+25.4 +19.4 69 +31 +31 очень душно 1015.5 996.4
штиль 0 20 км 4/0
[Ci fib]
+25.7 +16.2 56 +29 +29 душно 1013.7 994.6
Ю 1 20 км 3/0
[Ci fib]
+22.2 +18.9 82 +28 +28 душно 1015.2 995.9
Ю 2 20 км ясно +28.0 +19.3 59 +34 +41 очень душно 1013.6 994.7 +22.0
ЮВ 1 20 км ясно +33.5 +19.6 44 +39 +58 опасность солнечного удара 1012.9 994.4
ЮВ 1 20 км 3/3 1000 м
[Cb calv]
+35.1 +17.4 35 +38 +50 очень душно 1012.1 993.7
В 1 20 км 3/3 1000 м
[Cb calv]
+34.2 +18.6 40 +39 +42 очень душно 1011.6 993.1
штиль 0 20 км ясно +29.8 +19.5 54 +36 +36 очень душно 1011.9 993.2 +35.4
Ю 2 20 км 3/0
[Ci fib]
+25.4 +19.2 69 +31 +31 очень душно 1012.7 993.7
штиль 0 20 км ясно +24.7 +17.7 65 +29 +29 душно 1013.4 994.3
штиль 0 20 км 1/0
[Ci fib]
+23.0 +16.5 67 +28 +28 душно 1013.6 994.4
Ю 2 20 км ясно +27.6 +15.1 46 +30 +38 жарко 1013.7 994.8 +22.7
Ю 3 20 км ясно +33.5 +15.0 33 +35 +49 душно 1013.2 994.6
Ю 2 20 км 3/3 600 м
[Cu med, cong]
+35.9 +15.1 29 +37 +47 душно 1012.5 994.1
Ю 2 20 км 3/3 600 м
[Cu med, cong]
+35.4 +15.8 31 +37 +40 очень душно 1012.1 993.6 +4.7
Ю 2 20 км 3/0
[Ci fib]
+28.2 +17.5 52 +32 +32 душно 1013.7 994.8 +35.9
штиль 0 20 км ясно +24.3 +17.3 65 +28 +28 душно 1014.2 995.1
штиль 0 20 км ясно +21.8 +17.8 78 +26 +26 душно 1014.0 994.7
штиль 0 20 км ясно +22.5 +18.3 77 +28 +28 душно 1014.4 995.1
штиль 0 20 км 3/0
[Ci fib]
+25.4 +20.0 72 +31 +41 очень душно 1015.8 996.7 +21.2
СЗ 1 20 км 3/0
[Cs]
+31.1 +19.4 50 +37 +55 опасность солнечного удара 1014.6 995.9
СВ 2 20 км 3/1 600 м
[Cu med, cong Cs]
+33.7 +17.8 39 +38 +50 очень душно 1014.3 995.7
штиль 0 20 км ясно +33.4 +17.6 39 +37 +43 очень душно 1014.1 995.5
штиль 0 20 км 3/0
[Ac trans]
+29.9 +17.3 47 +34 +34 очень душно 1013.9 995.1 +34.2
штиль 0 20 км ясно +27.1 +18.0 58 +32 +32 очень душно 1014.8 995.8
штиль 0 20 км ясно +25.0 +18.2 66 +29 +29 душно 1014.9 995.8
штиль 0 20 км 4/0
[Cc]
+23.8 +19.5 77 +29 +29 душно 1015.2 996.0
штиль 0 20 км 1/0
[Cc]
+29.2 +20.3 59 +36 +46 очень душно 1015.8 997.0 +23.7
штиль 0 20 км ясно +33.0 +18.3 42 +38 +59 опасность солнечного удара 1015.4 996.8
СВ 1 20 км 1/1 1000 м
[Cu med, cong]
+35.8 +17.5 34 +39 +54 опасность солнечного удара 1014.2 995.8
ЮЗ 8 500 м сильн. ливневой дождь {гроза} 10/10 600 м
[Cb cap]
+25.1 +18.1 65 +29 +29 душно 1014.8 995.7
ЮВ 2 {21} 10 км {гроза, ливн. дождь} 3/0
[Ac cuf Ci fib]
+23.8 +22.3 91 +31 +31 очень душно 1015.3 996.2 +36.0 38
н/о 1016.6 997.4
штиль 0 20 км 9/0
[Ac trans]
+24.1 +21.4 85 +31 +31 очень душно 1015.0 995.9
штиль 0 10 км ясно +23.2 +21.4 90 +31 +32 очень душно 1015.1 995.9
штиль 0 20 км 8/0
[Ac trans Ci fib]
+27.1 +21.6 72 +35 +41 очень душно 1015.9 996.9 +23.0
С 1 20 км 5/5 600 м
[Cb calv]
+32.5 +21.7 53 +41 +50 очень душно 1016.3 997.7
З 1 20 км в посл. час гроза 8/6 600 м
[Cb calv Ci ing]
+34.8 +18.4 38 +39 +45 очень душно 1015.0 996.5
З 4 20 км гроза, ливневой дождь 9/8 600 м
[Cb cap Ci ing]
+23.6 +20.3 82 +29 +30 душно 1017.3 998.1
штиль 0 20 км в посл. час гроза {ливн. дождь} 9/6 600 м
[Cb cap Ac cuf Ci ing]
+22.1 +20.9 93 +29 +29 очень душно 1018.0 998.7 +35.6 3
Ю 2 20 км 6/0
[Ac cuf Ci]
+22.8 +19.5 82 +29 +29 очень душно 1017.0 997.7
штиль 0 10 км в посл. час ливневой дождь 9/6 600 м
[Cb cap Ac cuf Ci ing]
+21.5 +19.8 90 +27 +27 душно 1017.4 998.0
штиль 0 10 км 6/1 1000 м
[Cb calv Ac cuf Cc]
+21.0 +19.5 91 +25 +26 комфорт 1017.4 998.0
штиль 0 20 км 3/1 1000 м
[Cu med, cong Ac trans Ci sp]
+26.8 +20.8 70 +34 +41 очень душно 1016.8 997.8 +20.6 3
З 2 20 км 9/1 1000 м
[Cu med, cong Ac und Cc]
+30.8 +21.0 56 +38 +46 очень душно 1016.4 997.7
СЗ 2 20 км слаб. ливневой дождь, в посл. час гроза 10/5 600 м
[Cb calv Cs]
+26.7 +24.2 86 +37 +43 очень душно 1017.4 998.4
СЗ 2 20 км в посл. час ливневой дождь {гроза} 10/6 600 м
[Cb cap Cs]
+23.3 +19.7 80 +30 +31 очень душно 1016.0 996.8
Местоположение метеостанции Киев (город Киев, Украина): широта 50.39 долгота 30.54 высота над уровнем моря 167 м.
В архиве по умолчанию представлена погода в Киеве за последнюю неделю. Архивные данные за месяц целиком и за предыдущие месяцы, начиная с января 2011 года, Вы можете получить, выбрав интересующий диапазон дат из раскрывающегося списка и нажав кнопку "Найти!".
*Определитесь, кто Вы:
Внимание! Время в таблицах - всемирное. Для получения местного времени необходимо прибавить поправку, которая равна 2 ч.
Некоторые строки с данными для отдельных станций могут быть выделены курсивом. Это означает, что фактические данные отсутствуют по различным причинам, а приведенные значения являются расчетными модельными данными для данного пункта наблюдений.
Смотрите также архив погоды в соседних городах и на ближайших метеорологических станциях:
Партнеры нашего сайта:      
Пояснения к столбцам:
  • Ветер - указаны скорость ветра в м/с - средняя за 10 мин, порывы в срок и между сроками (в фигурных скобках) и направление, откуда дует ветер: С - северный,
  • СВ - северо-восточный, В - восточный, ЮВ - юго-восточный, Ю - южный, ЮЗ - юго-западный, З - западный, СЗ - северо-западный.
  • Видимость - горизонтальная дальность видимости в метрах или километрах. При видимости от 1 до 10 км при отсутствии осадков обычно наблюдается дымка, при ухудшении видимости до 1 км и менее - туман. В сухую погоду видимость может ухудшаться дымом, пылью или мглою.
  • Явления - указаны атмосферные явления, наблюдавшиеся в срок или в последний час перед сроком; фигурными скобками обозначены явления, наблюдавшиеся между сроками (за 1-3 часа до срока); квадратными скобками обозначены град или гололедные отложения с указанием их диаметра в мм.
  • Облачность - указаны через наклонную черту общая и нижняя облачность в баллах и высота нижней границы облаков в метрах; квадратными скобками обозначены формы облаков: Ci - перистые, Cs - перисто-слоистые, Cc - перисто-кучевые, Ac - высококучевые, As - высокослоистые, Sc - слоисто-кучевые, Ns - слоисто-дождевые, Cu - кучевые, Cb - кучево-дождевые. Подробнее классификацию облаков см. в Атласе облаков (PDF).
  • T - Температура воздуха - температура, измеренная на высоте 2 м над землей.
  • Td - Температура точки росы - температура, при понижении до которой содержащийся в воздухе водяной пар достигнет насыщения.
  • f - Относительная влажность воздуха - влажноcть воздуха, измеренная на высоте 2 м над землей.
  • Te - Эффективная температура - температура, которую ощущает одетый по сезону человек в тени. Характеристика душности погоды. При расчете учитывается влияние влажности воздуха и скорости ветра на теплоощущения человека.
  • Tes - Эффективная температура на солнце - температура, которую ощущает человек, с поправкой на солнечный нагрев. Характеристика знойности погоды. Зависит от высоты солнца над горизонтом, облачности и скорости ветра. Ночью, в пасмурную погоду, а также при ветре 12 м/с и более поправка равна нулю.
  • P - Атмосферное давление - приведенное к уровню моря атмосферное давление.
  • Po - Атмосферное давление - измеренное на уровне метеостанции атмосферное давление.
  • Tmin - Минимальная температура - минимум температуры воздуха на высоте 2 м над землей.
  • Tmax - Максимальная температура - максимум температуры воздуха на высоте 2 м над землей.
  • R - Количество осадков - Количество выпавших осадков за период времени, мм. При наведении курсора мыши на число - период времени, за который выпало указанное количество осадков.
  • R24 - Количество осадков - Количество выпавших осадков за 24 часа, мм.
  • S - Снежный покров - Высота снежного покрова, см. При наведении курсора мыши на число - состояние снежного покрова и степень покрытия местности в баллах.